CDT,Max TemperatureF,Mean TemperatureF,Min TemperatureF,Max Dew PointF,MeanDew PointF,Min DewpointF,Max Humidity, Mean Humidity, Min Humidity, Max Sea Level PressureIn, Mean Sea Level PressureIn, Min Sea Level PressureIn, Max VisibilityMiles, Mean VisibilityMiles, Min VisibilityMiles, Max Wind SpeedMPH, Mean Wind SpeedMPH, Max Gust SpeedMPH,PrecipitationIn, CloudCover, Events, WindDirDegrees
2014-3-1,51,42,33,34,30,23,79,64,52,30.19,30.13,30.06,10,9,5,14,3,,0.00,8,,16
2014-3-2,32,21,10,26,16,5,93,83,74,30.35,30.26,30.17,10,4,1,23,15,31,0.78,8,Rain-Snow-Thunderstorm,356
2014-3-3,21,15,9,9,4,-1,80,63,48,30.49,30.42,30.29,10,9,2,21,15,28,0.01,2,Snow,355
2014-3-4,37,24,10,18,12,7,88,63,36,30.37,30.27,30.18,10,10,8,8,2,,0.00,0,,112
2014-3-5,37,28,18,26,22,15,96,82,59,30.28,30.24,30.17,10,8,2,10,2,,0.00,4,,90
2014-3-6,45,36,27,26,23,20,85,65,47,30.28,30.19,30.08,10,8,4,10,6,,0.00,0,,34
2014-3-7,52,38,24,34,28,20,89,69,47,30.08,30.03,29.96,10,8,4,13,3,,0.00,0,,186
2014-3-8,50,42,34,38,34,29,86,79,63,30.31,30.16,30.02,10,4,2,14,7,,0.01,6,Rain,315
2014-3-9,50,39,28,34,30,26,93,78,48,30.37,30.26,30.07,10,5,2,14,4,,0.00,3,,209
2014-3-10,64,50,35,48,40,32,93,73,46,30.07,29.91,29.78,10,7,2,20,10,,0.00,1,,198
2014-3-11,73,58,44,56,47,39,82,64,37,29.76,29.64,29.47,10,10,10,22,11,28,0.00,1,Rain,200
2014-3-12,64,48,32,56,34,24,89,74,45,30.16,29.80,29.41,10,10,6,28,19,43,0.03,7,Rain,321
2014-3-13,55,40,25,34,28,22,89,62,37,30.25,30.14,30.02,10,10,10,16,4,21,0.00,1,,180
2014-3-14,63,54,46,42,37,33,77,55,38,30.01,29.95,29.86,10,10,10,33,17,40,0.00,2,,207
2014-3-15,68,49,30,41,33,26,100,62,22,30.08,30.01,29.92,10,8,2,13,4,,0.00,0,,139
2014-3-16,51,40,30,38,29,18,88,78,52,30.03,29.95,29.87,10,6,0,20,12,29,0.61,8,Fog-Rain-Snow,25
2014-3-17,45,36,27,32,24,16,86,67,56,30.02,29.92,29.83,10,10,10,15,9,24,0.00,5,,34
2014-3-18,57,42,28,42,36,27,92,74,60,29.88,29.80,29.66,10,9,5,22,9,31,0.00,1,,158
2014-3-19,55,46,34,44,38,31,89,66,51,30.17,29.93,29.71,10,10,6,20,15,32,0.00,2,,260
2014-3-20,64,45,27,35,30,25,92,62,28,30.18,30.11,30.01,10,8,2,17,5,18,0.00,0,,202
2014-3-21,69,58,48,40,34,30,54,42,25,30.01,29.93,29.83,10,10,10,26,14,34,0.00,1,,209
2014-3-22,53,46,39,36,31,28,73,59,46,30.29,30.16,29.96,10,10,10,16,12,23,0.00,2,,352
2014-3-23,44,36,30,27,19,13,64,50,32,30.43,30.37,30.28,10,10,10,16,11,24,0.00,1,,359
2014-3-24,46,34,23,30,22,14,92,66,29,30.39,30.27,30.19,10,7,2,12,5,21,0.00,5,Snow,29
2014-3-25,46,37,25,30,23,12,92,68,29,30.32,30.20,30.12,10,6,2,21,6,29,0.01,6,Snow,307
2014-3-26,48,34,19,20,16,13,81,47,28,30.41,30.28,30.10,10,9,3,15,5,23,0.00,2,,163
2014-3-27,61,52,44,53,38,19,87,58,33,30.06,29.85,29.72,10,10,7,29,18,39,0.03,8,Rain,180
2014-3-28,59,52,45,54,45,36,90,73,51,30.09,29.90,29.71,10,9,1,20,12,30,0.39,4,Rain-Thunderstorm,312
2014-3-29,46,42,36,41,37,32,89,79,68,30.29,30.13,30.00,8,5,3,18,10,28,0.29,7,Rain,352
2014-3-30,62,44,28,37,30,25,92,74,31,30.32,30.24,30.12,10,5,0,9,2,,0.00,0,Fog,219
2014-3-31,71,54,39,42,37,32,77,48,31,30.12,30.00,29.83,10,10,10,21,11,32,0.00,2,,170